User: anonymous   Login
Location: Unspecified
(0.0000°N, 0.0000°E)
Time: 06:18:20
(UTC+00:00)
Language:

Tiangong 2 - Orbit

View from above orbital plane
View from above orbital plane
View from above satellite
View from above satellite

Ground track
Ground track

The orbit data is extracted from the following two-line orbital elements,

1 41765U 16057A   19113.84127315  .00003904  00000-0  49046-4 0  9991
2 41765  42.7830 291.0390 0008696 255.0078 309.8836 15.61312766148546
Epoch (UTC): 23 April 2019 20:11:26
Eccentricity: 0.0008696
inclination: 42.7830°
perigee height: 378 km
apogee height: 390 km
right ascension of ascending node: 291.0390°
argument of perigee: 255.0078°
revolutions per day: 15.61312766
mean anomaly at epoch: 309.8836°
orbit number at epoch: 14854

The dashed part of the orbit path shows where the satellite is in the earth's shadow,  

DLR